Location: Cran-Gévrier
(45.9039°N, 6.1012°E)
Time: 19:54:32
(UTC+00:00)

Okean O Rocket - Pass Details

Date: 09 February 2023
Orbit: 620 x 643 km, 98.1° (Epoch: 22 March)

Event Time Altitude Azimuth Distance (km) Brightness Sun altitude
Rises 18:07:54 0° 145° (SE) 2,919 4.7 -13.5°
Reaches altitude 10° 18:10:11 10° 138° (SE) 2,019 3.9 -13.9°
Maximum altitude 18:14:17 40° 69° (ENE) 942 2.0 -14.6°
Drops below altitude 10° 18:18:27 10° 0° (N) 2,045 4.2 -15.4°
Sets 18:20:46 0° 354° (N) 2,961 5.1 -15.8°
